Wind_Speed
7 7 7 7 7 8 8 8 7 7 7 7 7 7 7 7 7 7 7 7 7 8 8 7 7 7 7 7 7 7 8 8 9 9 10 10 10 10 10 9 9 9 9
7 8 8 8 8 8 8 8 7 7 7 7 7 7 8 8 7 8 8 8 8 8 9 9 9 8 8 8 8 8 8 9 10 10 10 10 10 11 10 10 10 10 10
8 8 7 7 8 9 9 9 8 8 7 8 8 8 8 8 8 8 9 9 8 8 9 10 9 9 10 10 10 9 10 10 10 10 11 11 11 10 11 11 11 11 11
9 9 9 8 9 9 10 9 9 9 8 8 9 9 9 9 9 9 10 9 10 10 10 10 11 10 10 11 11 11 11 11 11 11 11 12 12 12 12 12 12 13 12
10 11 11 11 11 11 11 10 10 10 10 9 9 9 9 10 10 10 10 11 11 12 11 11 12 12 12 12 11 12 12 12 12 12 12 13 13 14 14 14 14 14 14
12 12 12 12 12 12 11 11 11 11 11 10 10 10 10 10 11 12 12 11 12 12 13 13 13 12 13 14 13 13 13 14 13 13 13 14 14 15 15 14 14 14 14
14 14 14 13 13 13 12 12 12 12 11 11 12 12 12 12 13 13 13 13 13 14 14 14 15 14 14 14 15 15 15 15 15 15 15 15 15 15 15 15 15 15 14
16 16 16 15 14 14 14 14 13 13 13 14 14 15 14 14 15 15 15 15 14 14 15 15 16 16 15 15 15 15 16 15 15 15 16 16 16 16 16 16 16 15 15
17 17 17 16 16 16 15 14 14 14 14 15 15 15 15 15 15 16 16 17 17 16 17 17 17 17 16 16 16 16 15 16 16 16 16 16 16 17 17 17 17 16 16
17 17 17 16 15 15 15 15 15 14 14 15 16 16 16 16 17 17 18 18 18 18 18 19 19 18 18 18 17 16 16 16 17 18 18 18 18 18 18 17 17 16 16
18 17 17 16 15 15 16 16 16 16 16 16 16 17 18 18 18 19 19 19 19 19 19 19 20 20 20 19 19 18 19 18 19 19 20 20 20 20 20 19 18 18 18
18 17 17 17 17 17 17 17 17 17 16 17 17 18 19 20 21 21 20 20 20 20 19 20 20 20 21 21 21 21 21 21 21 21 22 22 22 22 22 21 20 19 19
18 18 18 18 18 18 18 18 17 18 18 18 18 19 19 21 21 21 21 21 21 21 21 21 20 21 21 22 23 23 23 24 24 23 23 23 23 23 23 22 22 21 20
19 19 19 19 19 20 20 18 18 19 19 18 19 20 20 21 22 21 21 21 22 22 23 23 22 22 22 22 23 25 25 25 25 25 25 24 24 23 24 24 23 22 22
20 20 19 19 19 19 19 20 20 20 20 19 19 19 20 21 22 22 22 22 23 23 23 23 23 22 22 22 23 24 25 26 26 26 26 25 25 24 24 24 23 23 23
21 20 20 20 20 20 20 20 21 20 20 20 19 19 20 21 21 22 22 23 23 24 24 24 25 24 24 24 24 25 25 26 26 26 26 26 25 24 25 25 25 26 25
23 22 21 22 22 21 21 21 21 21 21 21 20 20 21 22 22 23 23 23 23 23 24 25 26 26 26 26 27 27 27 27 27 27 27 26 27 27 27 27 27 26 27
25 24 24 24 23 23 23 23 22 22 22 22 22 21 22 22 23 23 24 24 24 24 25 26 27 27 27 27 28 28 28 28 28 28 28 27 27 28 29 28 28 27 26
27 26 25 24 24 24 24 24 24 24 23 23 22 22 22 23 24 24 24 24 25 25 26 26 27 28 28 28 28 28 28 29 29 28 28 28 28 28 28 29 29 28 27
26 26 26 25 25 25 25 25 26 26 26 25 24 24 24 25 25 25 25 25 25 26 26 27 27 27 28 28 28 28 28 28 28 28 28 28 29 29 29 29 29 29 29
25 26 26 25 25 26 26 27 28 28 27 27 27 27 27 26 27 27 26 26 26 27 28 28 28 28 28 27 27 27 27 28 28 29 29 29 29 29 29 29 29 29 29
26 26 26 26 27 28 29 29 29 29 29 29 29 29 29 28 28 28 28 28 28 29 29 29 29 28 28 28 28 28 28 28 28 28 28 28 29 29 29 28 29 29 29
27 28 28 28 28 29 30 30 31 30 30 30 30 30 30 30 30 30 29 29 29 29 29 30 30 30 29 29 29 29 29 28 28 28 27 27 27 28 28 28 28 28 29
28 28 29 29 30 30 31 32 33 32 32 32 31 31 31 31 31 31 31 30 30 30 30 30 30 30 30 29 29 29 28 28 28 27 27 27 27 27 27 27 28 28 28
29 29 29 30 31 32 33 33 33 33 33 33 33 32 32 32 32 32 32 32 32 32 31 31 31 30 29 28 28 28 28 28 27 27 27 27 27 27 27 27 28 29 29
31 31 31 31 32 33 33 33 33 33 34 34 34 33 32 32 33 33 33 33 32 32 31 31 30 30 28 27 28 28 28 28 27 27 27 27 27 27 27 27 28 29 30
Wind_Direction
290 293 296 294 292 296 299 287 282 280 270 267 267 269 276 285 285 281 286 288 287 283 279 279 283 285 287 288 287 283 283 284 285 289 292 293 290 291 288 282 283 283 282
284 289 290 290 290 295 299 293 279 275 266 264 264 267 273 279 282 277 276 282 287 287 282 276 280 281 282 281 284 283 284 284 286 287 288 290 287 287 287 279 277 279 280
276 284 290 289 292 296 297 294 284 277 268 260 261 269 278 281 284 277 275 282 287 290 285 278 280 280 276 278 278 278 282 285 282 283 286 290 289 286 286 284 280 279 279
273 275 280 286 291 297 298 290 283 279 276 269 264 265 278 280 282 278 274 281 285 286 288 282 282 282 277 276 277 276 282 283 280 281 284 288 288 287 285 283 282 281 279
272 273 276 282 286 291 293 287 282 280 277 271 266 267 273 275 276 274 273 280 285 284 285 284 281 279 279 279 280 277 281 283 282 282 283 285 286 286 284 280 280 280 280
269 270 273 279 283 287 288 283 280 280 275 270 266 270 272 272 274 274 273 278 282 282 282 281 280 281 278 276 276 278 280 281 281 281 283 284 286 285 284 280 280 279 279
266 269 272 278 282 283 283 281 281 280 277 275 270 270 270 272 275 276 278 279 279 279 279 277 277 277 278 278 279 277 277 279 279 279 279 282 285 283 282 280 279 278 280
267 270 271 274 278 281 280 277 279 278 277 277 274 273 273 273 274 274 276 278 278 278 276 277 277 275 276 277 280 280 279 280 282 284 282 281 282 283 281 279 278 275 277
265 268 270 271 275 278 279 278 276 277 277 278 276 272 274 274 274 274 275 276 276 277 275 275 276 276 276 277 279 281 282 281 281 283 284 283 282 282 280 277 278 277 275
265 269 272 276 276 277 279 277 275 278 281 278 276 275 275 275 274 275 276 276 275 274 274 274 272 274 275 276 278 279 281 283 281 280 282 282 281 281 279 277 275 276 276
270 271 273 277 276 276 278 280 279 280 281 278 276 277 277 275 276 276 276 275 275 273 271 272 272 273 275 275 275 278 280 282 283 282 281 280 280 280 279 276 275 274 274
273 272 273 274 273 273 274 276 279 278 281 281 279 278 279 277 277 275 273 273 273 274 273 272 273 273 274 274 273 274 277 279 281 281 281 279 279 279 278 276 275 274 274
273 271 272 273 269 270 273 274 276 279 281 283 281 279 278 278 277 273 271 272 273 273 272 273 274 274 273 273 274 273 275 277 279 279 280 279 279 278 275 275 276 274 273
271 272 272 272 272 270 273 276 277 280 283 285 284 281 279 278 278 274 273 274 274 274 273 272 273 273 272 272 273 275 276 277 278 279 278 278 277 276 273 274 274 272 272
270 271 272 272 272 273 274 275 278 280 282 283 285 282 280 278 277 274 274 276 274 272 273 272 273 273 273 273 274 275 276 277 276 276 276 275 274 273 271 271 272 273 272
273 274 272 269 271 273 276 279 278 280 282 283 282 282 282 280 280 277 276 277 275 274 273 272 273 272 273 275 277 277 278 278 276 276 276 274 272 271 271 269 270 271 271
274 274 272 268 267 271 274 277 279 281 281 282 281 281 281 281 280 279 278 278 277 276 276 275 275 275 276 277 277 276 276 277 277 277 277 274 271 270 270 269 268 269 270
270 271 271 270 270 271 273 276 278 279 280 281 284 282 280 280 280 279 278 277 277 278 279 279 277 277 276 277 277 276 276 276 277 277 276 274 273 271 269 269 269 269 269
269 268 268 269 271 273 274 275 276 279 281 282 283 284 284 282 281 280 279 279 278 278 280 279 280 279 276 276 276 276 276 277 277 276 276 275 275 273 270 269 268 267 267
267 266 267 269 270 272 275 276 278 280 283 284 284 284 285 284 283 282 281 278 277 277 277 278 280 279 277 276 276 275 276 277 277 277 277 276 274 273 271 270 269 269 268
266 267 267 268 270 272 275 277 279 281 283 283 283 284 283 282 281 281 280 278 278 277 277 278 279 279 279 278 277 277 277 278 279 279 277 275 273 271 271 270 269 269 269
264 266 267 270 271 272 274 276 278 279 281 282 283 282 282 282 280 279 279 278 278 278 278 278 278 279 279 279 278 278 278 279 280 279 277 274 272 271 271 271 270 269 268
264 265 268 271 273 273 274 275 275 276 278 279 281 282 282 282 280 278 278 278 277 277 277 276 276 278 279 278 278 277 278 278 279 279 277 275 274 273 272 270 270 269 269
264 266 268 271 274 275 275 275 275 276 277 277 279 280 280 281 281 280 279 278 277 277 277 276 276 277 278 277 277 277 277 277 278 278 278 277 276 274 273 270 269 269 269
263 267 271 272 274 275 275 275 275 276 277 277 279 280 280 280 281 279 279 279 277 276 276 276 276 275 274 274 274 274 275 276 277 277 278 277 276 275 273 272 271 270 270
265 268 271 272 274 275 274 275 276 276 277 278 279 280 282 281 281 279 277 277 277 276 276 275 274 273 272 272 271 273 275 277 277 278 278 278 277 275 273 273 272 271 270
Height
5873 5872 5872 5871 5871 5871 5871 5870 5869 5868 5868 5868 5868 5869 5868 5868 5868 5868 5868 5867 5867 5867 5866 5866 5866 5865 5865 5865 5865 5865 5864 5864 5864 5864 5863 5863 5863 5862 5862 5861 5861 5860 5860
5870 5870 5870 5869 5869 5869 5868 5868 5867 5866 5866 5866 5866 5866 5866 5866 5866 5866 5866 5866 5865 5864 5864 5864 5864 5863 5863 5863 5863 5863 5862 5862 5862 5861 5861 5861 5861 5860 5859 5859 5858 5858 5857
5868 5867 5867 5867 5867 5867 5866 5866 5865 5864 5864 5863 5864 5864 5864 5864 5864 5863 5863 5863 5863 5862 5862 5862 5861 5861 5860 5860 5860 5860 5860 5860 5859 5859 5858 5858 5857 5857 5857 5856 5855 5855 5855
5865 5865 5865 5864 5864 5864 5864 5863 5863 5862 5862 5861 5861 5861 5861 5861 5861 5860 5860 5860 5860 5860 5860 5859 5859 5858 5858 5857 5857 5857 5857 5857 5856 5856 5855 5855 5854 5854 5853 5853 5853 5852 5851
5863 5862 5862 5862 5861 5861 5860 5860 5860 5859 5859 5859 5859 5858 5858 5858 5858 5858 5858 5858 5858 5857 5857 5857 5856 5855 5855 5855 5854 5854 5854 5853 5853 5853 5852 5852 5851 5850 5850 5850 5849 5849 5848
5859 5859 5859 5858 5858 5857 5857 5856 5856 5856 5856 5856 5856 5856 5855 5855 5855 5855 5854 5854 5854 5854 5854 5853 5853 5852 5852 5852 5851 5851 5850 5850 5850 5849 5849 5848 5848 5847 5846 5846 5845 5845 5845
5856 5856 5855 5855 5854 5854 5853 5853 5853 5853 5853 5853 5853 5852 5852 5852 5852 5851 5851 5851 5851 5850 5850 5849 5849 5849 5849 5848 5848 5847 5847 5846 5846 5845 5845 5844 5844 5843 5842 5842 5842 5841 5841
5852 5852 5851 5851 5850 5850 5849 5849 5849 5849 5849 5849 5849 5849 5848 5848 5848 5848 5847 5847 5846 5846 5846 5846 5845 5845 5845 5844 5844 5843 5842 5842 5842 5841 5841 5840 5840 5839 5839 5838 5838 5837 5837
5847 5847 5847 5846 5846 5845 5845 5845 5846 5845 5845 5845 5845 5845 5845 5844 5844 5843 5843 5843 5842 5842 5841 5841 5841 5841 5841 5840 5840 5839 5838 5838 5838 5837 5837 5836 5836 5835 5835 5834 5834 5834 5833
5842 5842 5842 5841 5841 5841 5841 5841 5841 5841 5840 5840 5840 5840 5840 5839 5839 5839 5838 5838 5837 5837 5837 5837 5836 5836 5836 5836 5835 5835 5834 5834 5833 5832 5832 5832 5831 5830 5830 5830 5829 5829 5829
5838 5838 5838 5837 5837 5837 5837 5837 5836 5836 5835 5836 5835 5835 5835 5834 5834 5833 5833 5833 5832 5832 5832 5831 5831 5831 5831 5831 5831 5830 5829 5829 5828 5828 5827 5827 5826 5825 5825 5825 5824 5824 5824
5833 5833 5833 5833 5832 5832 5832 5832 5832 5831 5831 5830 5829 5829 5829 5829 5828 5828 5828 5827 5827 5826 5826 5826 5826 5826 5826 5825 5825 5825 5824 5824 5823 5822 5822 5821 5821 5820 5820 5819 5819 5819 5819
5828 5828 5828 5828 5828 5828 5827 5827 5826 5826 5825 5825 5824 5823 5823 5823 5823 5822 5822 5822 5821 5821 5821 5820 5820 5820 5820 5819 5819 5818 5818 5817 5817 5816 5816 5815 5815 5814 5814 5813 5813 5813 5813
5823 5823 5823 5823 5823 5822 5822 5821 5821 5820 5820 5819 5818 5817 5817 5817 5816 5816 5816 5816 5815 5815 5815 5815 5815 5814 5814 5813 5812 5812 5811 5811 5810 5810 5809 5809 5808 5808 5807 5807 5807 5807 5807
5817 5817 5817 5817 5817 5816 5816 5816 5815 5814 5813 5813 5812 5811 5811 5810 5810 5809 5809 5809 5809 5809 5808 5808 5808 5808 5807 5807 5806 5805 5805 5804 5803 5803 5802 5802 5801 5801 5801 5801 5801 5800 5800
5811 5810 5810 5810 5810 5811 5811 5810 5809 5808 5807 5807 5806 5806 5805 5805 5804 5803 5803 5803 5802 5802 5802 5801 5801 5801 5800 5800 5799 5798 5798 5797 5796 5795 5795 5794 5794 5794 5794 5794 5794 5794 5794
5804 5804 5804 5804 5804 5804 5804 5804 5803 5802 5801 5800 5799 5799 5799 5798 5797 5797 5797 5796 5795 5795 5795 5795 5794 5793 5793 5792 5792 5791 5790 5789 5789 5788 5787 5786 5786 5786 5786 5786 5787 5787 5787
5797 5797 5797 5797 5797 5797 5797 5797 5797 5796 5795 5794 5793 5792 5792 5791 5791 5790 5790 5789 5789 5788 5788 5787 5786 5786 5785 5784 5784 5783 5782 5781 5781 5780 5779 5779 5778 5778 5778 5778 5779 5779 5779
5789 5790 5790 5790 5790 5790 5790 5790 5789 5789 5788 5787 5786 5786 5785 5784 5784 5783 5782 5782 5781 5781 5780 5779 5778 5777 5777 5776 5775 5774 5773 5773 5772 5771 5770 5770 5770 5770 5769 5770 5771 5771 5771
5781 5782 5783 5783 5783 5783 5783 5782 5783 5782 5781 5780 5779 5779 5778 5777 5776 5775 5775 5774 5774 5773 5772 5771 5770 5769 5768 5768 5767 5766 5765 5765 5764 5762 5762 5762 5761 5761 5761 5761 5762 5763 5763
5774 5774 5774 5775 5775 5775 5775 5775 5775 5775 5774 5773 5772 5771 5770 5769 5768 5767 5766 5766 5765 5765 5764 5763 5762 5761 5760 5759 5758 5757 5757 5756 5755 5754 5753 5753 5752 5752 5752 5753 5753 5754 5755
5766 5767 5767 5767 5767 5767 5768 5768 5767 5767 5766 5765 5764 5763 5762 5761 5760 5759 5758 5757 5757 5756 5755 5754 5754 5753 5752 5751 5750 5749 5748 5747 5746 5745 5744 5744 5743 5743 5744 5744 5745 5745 5746
5758 5759 5759 5759 5759 5759 5759 5759 5758 5758 5757 5756 5755 5754 5753 5752 5750 5750 5749 5748 5748 5747 5746 5746 5745 5744 5743 5742 5741 5740 5740 5739 5738 5737 5736 5735 5735 5735 5735 5735 5736 5736 5737
5750 5750 5750 5750 5750 5750 5749 5749 5749 5748 5748 5747 5746 5745 5744 5742 5741 5740 5739 5739 5738 5738 5737 5736 5736 5735 5734 5734 5732 5731 5731 5730 5729 5728 5727 5727 5727 5727 5726 5727 5727 5728 5728
5741 5741 5741 5741 5741 5740 5740 5740 5739 5738 5737 5737 5736 5735 5734 5733 5732 5731 5730 5729 5729 5728 5728 5727 5726 5726 5725 5724 5723 5723 5722 5722 5721 5720 5720 5719 5719 5718 5718 5718 5719 5719 5719
5731 5731 5731 5731 5731 5730 5730 5730 5729 5728 5728 5727 5727 5726 5724 5723 5722 5721 5720 5719 5718 5718 5717 5717 5716 5716 5715 5714 5714 5714 5714 5713 5712 5712 5711 5711 5710 5710 5710 5710 5710 5710 5710